Theta_e
311 313 313 313 314 316 318 317 314 313 314 314 315 314 313 314 314 314 312 311 311 311 312 314 315 315 315 314 314 311 310 312 316 318 319 318 319 322 325 329 329 329 328 326 324 323 322 321 319 319 318 318 318 318 318 318 318 317 316 312 310 310 309 309 309 308 307 306 306 306 306 306 306 305 305 305 305 305 305 305 306 306 307 307 309 311
311 313 314 318 319 317 319 318 316 316 316 315 314 314 313 313 314 314 312 312 311 313 314 314 315 316 316 317 316 312 312 313 314 316 318 319 318 319 322 326 329 329 328 326 324 322 321 320 319 318 317 318 318 318 318 318 318 317 316 313 310 310 309 309 309 307 306 307 307 306 306 306 306 306 306 306 306 306 305 305 304 304 303 304 304 304
313 313 316 318 316 317 318 316 317 318 317 315 313 314 314 313 313 314 314 314 312 313 315 314 315 316 318 319 318 316 315 315 312 313 314 316 318 318 319 322 325 326 326 325 324 322 321 320 318 318 317 318 318 318 318 318 318 317 316 313 311 310 309 308 307 307 308 308 307 307 306 307 307 307 307 307 306 306 305 305 305 304 303 303 303 303
312 313 315 313 314 319 320 316 317 318 315 315 314 314 315 313 313 314 315 316 314 313 314 314 314 317 319 319 317 315 314 313 312 312 311 312 315 318 319 320 322 323 324 325 325 323 321 320 318 317 317 318 318 318 318 318 318 317 317 314 311 310 309 308 307 308 309 308 307 307 307 307 307 307 307 307 307 307 306 306 305 305 304 304 303 303
310 311 311 313 316 318 320 316 316 316 314 317 317 314 315 315 315 314 316 318 316 313 313 314 313 315 318 318 316 313 311 313 312 312 312 311 311 313 316 319 320 321 322 323 323 323 322 321 320 318 317 318 318 318 319 318 318 317 317 315 312 310 309 308 308 309 309 308 308 308 307 308 308 308 308 308 308 307 307 307 306 305 305 304 304 303
310 309 309 316 317 315 317 317 317 317 315 317 319 317 317 318 317 316 316 317 316 314 313 313 313 314 317 318 316 314 314 315 313 313 314 312 311 311 312 314 316 319 320 321 321 322 322 322 321 319 318 317 318 318 319 318 318 317 317 316 312 310 309 309 309 310 310 309 308 308 308 308 308 308 308 308 308 308 308 307 307 306 305 305 304 304
310 308 311 318 319 317 316 315 318 318 314 315 318 318 317 317 319 319 317 315 314 313 313 312 313 314 315 316 316 315 315 316 315 315 315 311 311 311 311 312 313 314 317 318 320 321 321 320 320 319 318 318 318 318 319 318 318 317 317 317 313 309 309 309 309 310 310 310 308 308 308 308 308 308 308 308 308 308 308 308 307 306 305 305 304 304
312 312 313 319 322 318 315 316 318 315 314 316 317 315 314 315 320 320 317 315 313 313 314 313 312 313 315 315 315 313 314 315 315 316 314 312 311 311 311 312 312 313 314 315 317 318 319 319 319 319 318 318 318 319 319 319 318 318 317 317 314 310 309 309 310 310 310 310 309 308 308 308 308 308 309 309 308 308 308 308 308 307 306 305 304 303
314 316 314 318 319 315 314 319 318 315 315 316 313 311 311 314 318 318 315 314 313 312 313 313 312 313 314 315 314 312 312 314 315 314 313 312 312 310 310 311 311 312 312 313 314 315 317 317 318 318 319 319 319 319 319 319 318 317 317 317 315 311 309 309 310 310 310 310 309 308 308 308 308 309 309 309 309 309 308 308 308 307 306 306 305 304
311 310 310 313 314 313 317 317 313 315 315 312 309 309 309 310 313 314 313 313 313 312 313 314 313 313 313 314 313 313 313 313 313 312 312 312 312 311 310 310 310 310 310 311 312 312 314 315 317 318 318 319 319 319 319 319 318 317 317 317 317 313 310 310 311 311 310 310 309 308 308 309 309 309 309 309 310 309 308 308 308 308 307 307 306 305
308 307 309 312 312 312 314 310 308 311 312 309 310 310 310 310 311 312 311 312 312 312 312 312 311 312 312 313 312 312 312 310 310 311 312 312 311 311 310 310 310 310 310 311 310 310 312 314 316 318 318 319 319 319 319 319 318 317 317 318 317 314 311 310 311 311 311 311 310 309 308 309 309 309 309 309 310 310 309 308 308 308 308 307 306 306
309 308 309 310 311 309 310 308 306 307 307 309 312 312 312 312 312 312 311 311 311 312 311 309 308 311 312 313 312 311 311 309 310 310 310 311 310 310 309 310 310 310 311 311 310 310 310 313 315 317 318 318 319 319 319 318 317 317 317 317 317 316 312 310 311 311 311 311 311 310 309 309 309 309 309 309 310 310 310 309 308 308 308 308 307 307
312 311 308 307 309 310 311 310 308 307 308 310 312 313 314 313 311 311 311 311 311 312 310 307 308 311 311 312 311 310 310 310 310 310 309 309 309 309 308 309 311 311 311 311 311 311 310 312 314 316 317 318 318 318 318 318 317 317 318 318 317 317 315 312 311 311 311 311 311 311 310 308 309 309 310 309 310 310 310 310 309 309 308 308 307 307
313 312 310 308 309 310 311 312 311 310 310 311 313 314 314 313 311 311 311 309 310 312 310 308 310 311 312 312 310 310 310 309 309 309 308 307 307 307 307 308 311 312 312 312 311 311 311 311 314 316 317 318 318 318 317 317 317 317 318 318 318 317 316 314 312 312 312 312 312 311 311 309 308 309 310 310 310 310 310 310 310 310 309 308 308 307
311 312 312 310 309 308 310 311 311 312 310 310 310 312 314 313 312 311 311 310 312 312 310 309 310 312 313 312 310 310 310 308 308 307 306 307 307 307 308 308 310 312 313 313 312 312 312 313 314 316 317 318 318 318 317 317 317 317 318 318 317 317 317 315 313 312 312 312 312 312 311 310 309 309 309 310 310 310 310 310 311 311 310 309 308 308
308 310 311 309 307 307 309 308 307 310 310 308 307 310 313 313 313 311 309 310 311 310 310 310 310 312 312 310 309 310 309 308 307 307 307 307 307 308 309 309 310 312 313 314 314 314 314 314 315 316 317 317 318 318 318 318 318 318 318 318 317 317 316 315 314 312 311 312 312 312 311 311 310 309 309 309 310 311 311 311 311 311 311 310 310 309
308 310 311 308 307 307 307 307 306 309 311 308 308 311 310 309 313 313 308 307 308 310 310 310 311 311 310 310 310 308 308 307 307 307 307 307 308 309 309 309 310 311 313 314 315 315 315 315 316 317 317 317 318 318 318 318 318 318 318 318 317 317 316 316 315 313 311 311 312 312 311 311 310 310 309 309 310 311 311 311 311 311 311 311 311 310
308 311 312 310 309 308 306 307 307 307 308 309 310 311 308 307 311 312 310 308 308 310 310 308 310 311 311 312 310 308 308 308 307 307 307 308 308 308 308 309 310 311 313 314 315 316 316 316 317 317 318 318 318 319 319 319 319 319 319 318 318 318 317 317 316 314 312 311 312 312 313 313 311 311 310 310 311 311 312 312 311 311 312 312 312 311
307 311 312 309 309 309 306 308 309 308 307 308 309 309 309 310 312 311 310 311 310 310 309 309 309 310 311 312 309 308 309 308 307 307 307 307 307 307 308 308 309 311 312 314 315 316 316 316 317 317 318 318 319 319 319 319 320 320 319 319 319 318 318 317 317 315 313 311 312 313 314 315 314 312 311 311 311 311 312 312 312 312 312 312 312 312
307 310 312 309 307 308 308 310 311 310 308 308 308 308 308 311 312 311 311 312 311 310 309 309 309 310 311 311 310 309 308 308 308 307 307 307 307 307 307 308 309 309 311 312 313 314 315 316 316 316 318 318 319 319 319 319 320 320 320 320 319 319 318 318 317 316 314 312 312 313 313 315 316 315 314 313 312 312 313 313 313 313 312 312 312 312
309 309 311 311 309 309 310 310 310 311 310 309 310 310 309 309 309 310 310 310 310 310 309 309 310 311 310 310 310 309 308 308 307 307 307 307 307 307 307 307 308 308 309 310 311 312 313 314 314 315 316 317 318 319 319 319 320 320 320 320 320 320 319 319 318 318 316 315 314 313 312 314 317 318 317 315 315 314 314 314 315 314 313 312 312 312
310 309 310 311 311 311 311 307 306 308 309 310 311 310 310 310 309 310 311 308 309 310 309 308 311 311 310 311 311 308 308 308 306 306 307 307 307 307 307 307 307 307 307 308 308 309 310 311 312 312 313 313 314 315 316 317 319 319 320 320 320 320 320 320 320 319 319 317 316 315 313 313 316 318 318 318 317 316 316 316 316 316 315 313 312 313
311 310 310 310 310 310 308 304 304 305 305 307 309 307 308 311 312 312 312 310 309 309 308 308 310 311 310 310 310 308 308 307 306 306 308 307 307 307 306 307 307 307 307 307 307 307 308 308 309 309 310 309 310 311 311 312 313 315 317 319 319 320 320 321 321 321 320 320 319 318 316 315 315 317 318 318 318 318 317 317 317 317 317 315 313 313
311 310 310 310 310 309 306 304 303 303 304 306 306 305 306 309 311 311 311 311 310 309 309 310 310 310 310 308 308 307 306 306 305 306 308 308 307 306 306 307 306 306 307 306 306 307 307 307 307 307 307 307 308 308 308 308 309 310 312 315 317 318 319 319 320 320 321 321 321 320 320 319 317 317 317 318 319 319 318 318 318 318 318 317 315 313
308 309 310 309 309 308 307 307 306 306 306 307 307 305 304 307 310 310 309 309 309 309 310 311 311 311 310 307 306 306 305 306 306 306 307 308 307 306 306 306 306 306 306 306 306 306 306 307 307 307 307 307 307 307 307 307 307 307 308 310 312 313 314 316 318 318 318 320 321 321 321 321 320 319 317 318 318 318 318 318 318 318 318 318 317 315
307 310 310 308 308 308 307 308 308 308 307 307 307 305 304 307 309 309 309 308 308 308 308 309 310 311 309 307 306 306 305 306 307 306 306 307 307 306 306 306 306 306 306 306 306 306 306 306 306 306 306 306 306 306 306 306 306 306 306 307 308 308 310 312 315 316 318 319 320 320 321 321 321 321 320 319 318 317 318 318 319 319 319 319 318 316
309 309 310 309 309 308 307 307 306 306 307 307 307 306 305 307 308 308 308 308 308 307 307 309 309 310 310 308 306 306 306 307 308 307 307 306 306 306 306 306 306 306 305 306 305 306 306 306 306 306 306 306 305 305 305 305 305 305 305 305 306 306 307 308 310 312 314 316 317 317 318 319 320 321 321 321 320 319 319 319 319 319 319 319 318 316
309 308 309 310 309 307 306 306 304 304 306 306 306 307 307 307 308 308 308 308 308 307 307 309 311 310 309 309 308 307 306 306 307 308 307 306 306 306 306 305 306 306 306 306 306 306 306 306 306 306 306 306 306 305 305 305 305 305 305 305 305 305 306 306 307 308 309 311 312 312 313 315 318 320 321 321 321 321 321 321 320 320 319 319 318 316
308 307 307 308 307 306 305 304 303 303 304 305 305 307 307 307 308 307 308 309 308 307 307 310 313 312 308 308 309 309 308 308 308 308 307 306 306 306 306 306 306 306 306 305 305 305 305 305 305 305 305 305 305 305 305 305 305 305 305 305 305 305 305 305 306 306 307 307 309 310 310 311 313 316 319 320 320 321 321 321 321 320 320 319 318 317
306 306 307 307 306 307 305 304 304 304 305 305 305 306 306 306 307 307 308 308 308 308 308 308 312 313 309 308 310 309 306 306 307 306 306 306 305 305 305 305 305 305 304 303 303 303 303 303 303 303 303 303 303 303 303 303 304 304 304 305 305 305 306 306 305 305 305 306 306 307 308 309 310 312 315 318 320 320 321 321 321 321 320 319 318 317
304 306 307 306 305 305 304 304 304 304 305 305 306 306 305 305 305 305 306 306 305 306 306 305 309 310 306 306 307 305 303 304 305 306 306 306 305 305 306 305 303 302 302 302 302 302 302 301 301 302 301 301 302 302 302 302 302 302 302 303 303 304 304 305 305 305 305 305 305 305 306 307 308 309 312 314 317 319 320 320 320 320 320 319 318 317
304 304 306 304 303 303 303 303 303 304 304 304 305 306 305 305 305 305 304 305 305 306 306 305 306 306 305 305 304 304 305 306 307 307 307 306 305 305 305 303 302 302 301 301 301 301 301 301 301 301 301 300 301 301 301 301 301 301 301 301 302 302 302 303 303 303 303 303 304 304 304 305 306 307 308 311 314 317 319 319 320 320 319 319 317 316
304 303 303 303 302 302 303 304 304 304 303 303 304 305 306 307 307 306 305 305 306 306 306 305 305 306 306 305 303 305 307 307 308 307 305 305 305 305 304 302 301 302 301 300 301 300 300 301 300 300 300 300 300 300 300 300 300 300 301 301 301 301 301 301 301 302 302 302 302 303 303 304 304 305 306 307 310 314 318 319 319 319 319 318 317 316
303 303 302 302 301 301 302 304 303 303 302 302 302 303 304 305 306 306 306 306 306 305 304 304 304 304 304 304 305 306 307 306 305 304 303 304 304 304 304 303 302 302 301 301 301 300 300 300 300 300 300 300 300 300 300 300 300 300 300 300 300 300 301 301 301 301 301 301 301 302 302 302 303 304 304 305 307 311 315 317 318 318 318 318 316 315
303 302 302 301 301 300 300 302 303 303 303 302 301 302 302 302 303 304 305 304 304 304 303 303 304 304 304 304 305 305 305 304 303 303 303 303 303 303 304 303 302 302 302 302 301 301 300 300 300 300 300 300 300 300 300 300 299 300 300 300 300 300 300 300 300 300 300 300 301 301 301 302 303 303 303 304 305 309 313 315 317 317 317 317 315 314
302 302 301 301 301 300 300 301 302 303 302 302 302 303 303 303 303 303 303 303 303 302 303 304 305 305 305 305 303 303 304 304 303 303 302 301 301 302 302 302 303 303 302 302 302 301 301 300 300 300 300 300 300 300 300 300 300 299 299 299 299 299 299 299 300 300 300 300 300 301 301 302 302 303 303 303 304 308 312 314 315 316 317 316 315 313
301 301 301 301 301 300 300 301 301 302 302 303 304 303 302 303 303 303 302 302 301 301 302 304 304 304 305 305 303 303 304 304 304 302 301 301 301 301 301 301 301 302 302 301 302 301 301 300 300 301 301 301 300 300 300 300 299 299 299 299 299 299 299 299 299 299 299 300 300 300 301 301 302 302 303 303 304 307 311 313 315 316 316 315 314 312
300 301 301 301 300 299 300 301 302 302 302 302 303 302 301 302 302 302 302 302 301 300 301 302 302 302 304 304 302 303 304 303 303 303 301 301 301 301 301 301 301 301 301 301 301 300 300 300 300 300 300 300 300 300 300 300 299 299 299 299 299 299 299 299 298 299 299 299 299 299 300 300 301 302 303 303 303 306 310 313 315 316 315 314 313 312
299 299 300 301 300 300 301 302 301 302 302 301 301 302 301 301 300 301 303 303 301 300 300 301 301 302 303 302 302 303 303 302 302 303 302 301 301 301 301 301 300 300 300 300 300 300 300 300 300 300 300 300 300 300 300 300 300 300 299 299 299 299 299 299 299 299 299 299 299 300 300 300 301 302 303 303 303 304 309 312 314 315 314 313 311 310
300 298 299 300 300 300 301 301 301 300 301 301 301 301 301 300 300 302 304 303 300 300 300 300 301 302 301 301 301 303 303 302 302 302 301 300 300 299 299 298 299 298 298 298 298 299 299 299 300 300 300 300 300 300 300 300 300 300 300 300 300 300 300 300 300 300 300 300 300 300 300 300 300 301 303 304 303 305 309 313 314 314 313 311 310 309
299 298 297 298 299 300 300 301 301 300 301 302 301 300 300 300 301 304 303 300 298 299 300 300 301 302 301 301 301 302 302 301 300 300 299 298 298 298 298 298 298 297 298 298 298 298 298 298 298 299 299 299 300 300 300 300 301 300 300 300 300 301 301 301 302 301 301 301 301 301 301 301 301 302 304 304 304 307 311 314 314 314 312 310 309 307
297 297 297 297 298 298 298 299 299 299 300 301 300 299 299 300 301 301 300 298 298 299 299 300 301 301 300 300 300 300 300 300 299 299 298 298 298 297 297 297 297 298 297 297 298 298 298 298 298 298 298 298 299 299 299 300 300 300 300 300 301 302 302 302 302 302 302 302 302 302 302 301 302 303 304 305 306 309 312 313 313 312 311 309 307 306
298 297 297 297 297 296 297 298 299 298 299 300 300 298 299 299 299 298 298 297 298 298 298 300 300 299 299 299 299 299 299 298 298 298 298 298 297 297 297 297 297 297 297 297 298 298 298 299 299 298 298 298 299 299 299 300 300 300 300 300 301 302 303 303 302 302 303 303 303 303 303 303 304 305 305 306 308 311 312 312 312 310 309 307 306 306
297 297 296 296 296 297 297 298 299 298 298 299 298 298 298 298 297 297 297 298 297 297 298 299 299 299 299 299 299 299 298 297 297 297 297 297 297 297 297 297 297 297 297 297 297 298 298 298 299 299 299 299 299 299 299 300 300 300 300 300 301 302 303 303 303 303 303 303 304 304 304 305 306 306 306 307 310 311 312 311 310 308 307 306 306 304
297 296 296 296 297 297 297 298 298 298 298 298 297 297 298 298 297 297 297 297 297 298 298 299 299 299 299 298 298 298 298 298 297 297 297 297 297 297 297 297 297 297 297 297 298 298 298 298 299 300 300 300 299 300 300 300 300 301 301 301 302 303 303 303 303 303 304 304 304 304 305 306 307 307 308 309 311 311 311 309 307 306 305 304 302 300
296 296 296 296 296 297 297 297 297 297 297 297 296 297 297 297 297 297 296 296 297 298 298 298 298 298 298 298 297 297 297 297 297 297 297 297 297 297 297 297 297 297 297 298 298 298 298 298 299 300 300 300 300 300 300 300 301 301 302 302 302 303 303 304 304 304 304 304 304 305 306 306 307 308 309 310 309 309 308 305 303 302 300 299 298 298
296 295 295 296 296 296 296 297 296 297 297 297 296 296 296 296 296 296 296 296 296 296 296 296 296 297 297 297 297 297 297 297 297 297 297 297 297 297 297 297 297 297 298 298 298 298 298 298 299 300 300 300 300 300 300 300 301 302 302 302 303 303 304 304 304 304 304 304 304 305 306 307 308 309 308 307 306 305 304 302 301 300 298 297 298 298
295 295 295 295 296 295 296 296 297 297 297 296 296 296 296 296 296 296 296 296 296 296 295 295 296 296 296 296 297 297 297 297 297 297 297 296 296 296 297 297 297 298 298 298 298 298 299 299 299 299 299 300 300 300 300 300 301 302 303 303 303 303 304 304 304 304 304 304 304 305 306 307 308 308 306 304 303 302 301 300 299 298 297 297 298 297
296 295 295 295 295 295 295 296 296 296 296 296 296 295 295 295 295 295 296 295 295 295 295 295 296 296 297 297 297 297 297 297 296 296 296 296 297 297 297 298 298 298 298 298 298 299 299 300 300 299 299 300 299 300 300 301 302 302 303 303 303 304 304 304 304 304 304 304 304 306 307 307 307 306 303 302 301 299 298 298 297 298 298 298 297 295
295 295 295 295 294 294 295 295 295 295 295 296 296 295 295 295 295 295 295 295 295 295 296 296 296 296 297 297 297 297 297 296 296 296 297 297 298 298 298 299 299 299 299 299 299 299 300 300 300 300 300 299 300 300 301 302 302 303 303 303 304 304 304 304 304 304 304 304 305 306 306 306 305 303 301 299 298 298 298 298 297 297 298 297 295 295
295 295 295 295 294 295 295 295 295 295 295 295 295 295 295 295 295 295 295 295 295 295 296 296 296 297 297 297 297 297 297 296 297 297 298 298 299 299 299 300 300 300 299 299 299 300 300 300 300 300 300 300 300 301 302 302 303 303 303 304 304 304 304 304 304 303 304 304 305 306 305 304 302 300 299 298 298 298 298 297 296 296 296 296 295 295
Wind_Speed
1 1 1 2 2 2 2 2 2 2 2 2 2 2 2 1 1 1 0 2 2 1 0 1 1 3 4 5 3 2 4 7 9 9 10 14 19 23 28 32 35 37 37 34 31 31 30 29 28 27 26 24 23 22 19 18 17 14 12 11 9 8 7 6 4 4 4 4 3 4 5 5 6 6 5 4 3 2 2 3 5 7 8 9 9 10
1 1 1 3 3 1 1 3 4 4 3 2 2 2 1 2 1 0 1 2 2 1 0 1 2 3 3 3 3 3 3 6 10 11 13 17 20 23 28 33 36 37 37 34 32 31 31 31 30 29 28 27 26 24 22 20 18 16 14 11 10 8 7 6 4 4 6 5 4 5 7 7 7 7 6 4 4 3 2 0 1 3 4 5 6 7
0 1 3 3 2 4 4 3 4 4 3 2 1 2 2 2 2 2 0 1 2 1 0 1 3 4 3 4 3 4 5 6 9 12 16 20 23 25 28 32 36 36 35 35 34 33 33 32 32 32 31 30 28 26 25 23 20 19 16 13 11 9 7 7 6 7 8 7 7 7 8 8 8 7 7 6 6 5 4 4 4 3 3 2 2 3
0 1 1 2 5 5 4 3 4 3 2 1 1 2 1 1 1 1 1 2 2 1 1 0 3 4 2 2 2 3 5 6 8 10 12 16 22 27 30 32 35 36 36 37 38 36 34 34 34 35 35 33 31 29 28 26 23 22 19 14 11 10 8 9 9 10 9 9 9 9 9 9 8 8 8 8 7 7 6 7 7 6 6 4 3 1
2 1 5 5 3 3 3 3 4 3 2 1 3 3 1 1 2 2 1 3 0 2 2 2 4 2 1 1 2 1 3 5 5 6 8 12 17 22 26 30 33 36 38 39 40 39 37 37 38 39 38 36 34 32 31 29 26 24 20 15 12 12 11 11 11 11 10 10 10 10 10 10 9 8 8 8 8 8 7 7 8 8 8 7 6 4
3 1 5 4 2 2 3 3 4 4 2 1 4 6 4 3 3 2 1 2 1 0 3 3 4 1 2 1 1 1 3 2 3 4 6 8 11 15 21 26 30 34 37 38 39 40 41 40 40 40 40 40 37 35 34 31 28 25 20 17 14 13 13 12 12 12 10 10 9 9 10 11 10 9 8 8 7 7 8 8 8 8 8 8 8 7
0 2 3 3 3 3 2 2 4 5 3 1 3 6 5 4 3 3 1 1 2 2 2 2 4 3 1 1 1 2 4 4 3 2 0 1 4 8 14 18 22 27 32 37 39 40 41 41 40 41 43 42 40 37 36 33 30 26 22 19 16 15 15 14 13 12 11 9 8 8 9 9 9 7 6 6 6 6 7 7 8 8 8 9 9 8
2 2 2 2 3 3 2 2 3 6 5 1 1 4 7 5 4 4 2 1 1 2 1 1 1 3 3 1 1 2 4 4 3 4 5 5 4 5 9 13 16 20 25 31 36 40 41 41 41 42 43 43 41 38 37 35 32 29 25 20 17 17 17 15 14 13 11 10 10 11 11 10 9 7 5 5 4 5 5 6 7 7 7 8 9 9
2 2 1 2 1 1 2 0 5 9 4 1 1 4 4 4 3 3 2 1 1 2 3 1 1 3 3 1 1 1 2 3 4 8 10 9 9 9 11 13 15 19 22 25 30 35 38 40 41 41 42 42 41 39 38 37 34 30 26 22 19 19 19 17 15 14 11 11 12 13 13 12 10 9 7 5 4 4 4 5 5 6 6 7 8 9
1 3 2 3 2 2 1 1 4 7 2 2 5 5 6 5 5 3 1 2 2 3 5 1 1 3 4 1 1 2 2 3 6 8 9 11 14 14 16 17 16 17 21 25 27 30 33 36 38 38 39 40 40 39 39 37 35 32 28 25 23 21 20 19 18 15 13 12 13 14 15 13 11 11 9 8 6 5 5 4 4 5 5 5 7 7
2 2 2 2 2 1 3 3 1 1 3 5 5 5 6 4 3 2 2 1 1 3 3 2 2 3 4 1 2 2 3 4 6 7 8 12 16 18 19 20 18 15 16 21 26 28 29 32 34 35 36 37 39 40 41 39 36 34 31 29 26 23 21 21 20 18 15 13 13 14 15 14 12 12 11 10 9 7 6 5 5 5 5 4 5 6
3 1 2 2 2 4 5 4 3 2 4 4 2 3 3 1 1 1 1 1 3 4 0 3 1 3 4 1 2 2 4 4 4 6 9 12 15 18 21 21 17 13 12 13 20 25 26 27 29 32 34 35 37 40 41 40 38 35 32 30 27 24 24 23 21 20 17 15 13 14 15 15 14 13 12 11 10 9 7 6 5 5 5 5 4 4
3 2 1 3 2 4 3 3 3 1 2 2 2 3 2 1 1 1 1 1 4 3 1 2 1 3 4 2 2 3 3 3 4 6 8 11 14 16 18 18 16 12 10 7 10 17 21 24 27 29 31 33 36 39 42 41 39 36 32 30 29 27 26 25 23 22 20 17 14 14 15 16 15 14 13 11 10 10 9 8 6 5 4 5 4 4
3 1 0 1 1 2 3 3 2 2 4 4 3 3 4 2 1 2 2 1 4 2 2 1 1 2 2 0 2 3 4 5 6 7 8 9 11 13 14 15 15 12 10 8 3 7 14 18 22 25 29 32 34 38 40 39 37 36 33 32 32 30 28 26 25 24 22 19 16 14 15 16 16 15 14 13 12 11 11 10 8 5 4 5 5 5
2 2 0 1 0 1 2 3 1 2 3 2 1 2 3 4 2 3 3 3 4 0 2 0 2 2 1 1 2 3 4 5 6 7 8 9 10 11 14 16 18 16 12 11 8 2 5 11 16 20 24 27 31 34 36 35 33 34 34 34 33 32 30 28 27 26 25 22 19 16 16 17 17 17 15 14 13 12 12 12 10 7 6 6 6 6
2 3 2 2 1 0 1 1 1 3 3 1 1 1 2 3 3 1 1 1 1 0 1 2 2 1 1 1 2 2 3 4 5 6 8 10 12 15 19 21 22 21 18 13 10 7 2 5 10 14 17 21 24 28 30 30 29 31 33 35 35 34 32 30 29 29 27 24 22 19 18 18 18 18 17 16 15 14 14 13 12 10 8 7 7 7
1 3 2 2 1 1 1 1 1 1 2 2 2 3 1 1 3 3 1 2 1 3 2 1 2 1 1 1 1 1 3 4 4 6 8 10 12 16 19 22 24 25 23 19 14 9 5 2 4 8 11 14 17 20 23 25 26 27 30 33 36 36 34 32 31 31 29 26 24 21 19 19 19 19 19 18 17 16 15 15 14 12 11 10 9 8
2 3 1 1 1 1 2 2 3 3 1 2 2 3 3 1 2 2 1 2 0 4 2 1 3 3 3 2 3 4 3 3 4 5 6 9 12 13 15 19 23 24 26 25 20 14 10 7 4 3 4 6 9 12 15 18 20 22 25 29 33 35 35 34 33 32 31 28 25 22 21 21 21 21 21 20 20 19 18 17 16 15 14 13 12 10
1 3 2 0 2 2 3 1 2 4 3 1 1 3 2 2 2 2 2 2 2 3 2 2 2 3 4 4 7 7 4 3 2 3 4 7 9 10 12 17 22 24 27 28 25 21 17 15 12 8 5 4 3 4 7 9 12 16 19 23 27 30 33 34 34 34 32 30 28 26 23 21 21 22 22 22 22 22 21 19 19 18 17 16 15 14
0 2 2 1 1 3 2 1 2 1 3 2 2 3 0 2 1 1 1 1 3 3 1 2 2 3 4 4 8 9 5 2 1 1 2 4 5 6 10 16 20 23 26 28 28 25 21 20 19 15 11 8 7 4 2 3 5 8 11 14 18 22 27 31 34 35 34 33 32 30 27 22 21 22 24 24 24 25 24 22 21 20 19 18 18 17
1 1 2 1 1 3 1 0 2 1 2 2 2 3 1 1 0 1 1 0 1 3 2 2 3 2 1 2 6 8 5 3 2 0 1 2 3 5 10 15 19 22 24 26 28 27 24 23 21 18 16 14 12 9 5 3 2 4 6 9 12 15 19 23 28 32 34 35 34 33 31 27 24 24 24 25 26 26 26 25 23 22 22 21 20 20
0 1 2 2 3 3 1 2 2 1 1 1 2 2 2 2 1 3 3 1 0 2 2 3 3 2 2 1 3 5 3 2 2 2 2 2 3 6 12 15 18 20 22 23 25 25 25 24 23 21 19 18 17 14 11 8 5 1 3 6 8 10 12 14 17 22 27 32 34 36 35 32 29 27 24 25 28 28 28 27 26 25 24 24 23 22
1 1 1 3 4 3 2 2 2 2 1 0 0 1 2 2 2 5 5 2 2 1 1 1 2 1 2 2 2 2 1 1 3 4 4 3 3 7 11 14 17 19 19 20 21 22 22 22 22 21 20 19 18 17 15 13 10 7 2 2 6 8 10 9 10 13 18 23 27 31 33 34 35 33 29 27 28 30 30 29 28 27 27 26 25 24
1 1 1 3 3 2 1 0 0 1 1 1 1 1 1 1 0 1 2 0 2 3 2 2 3 2 2 1 1 2 2 2 4 6 6 5 6 8 10 13 15 16 16 17 17 18 18 18 18 18 18 18 17 16 15 13 11 9 6 2 1 4 6 7 9 10 12 17 20 22 25 30 35 37 37 34 32 30 30 31 31 31 30 29 28 27
1 1 1 2 3 2 2 2 2 2 1 1 0 1 0 1 4 2 1 1 2 2 2 4 4 2 3 2 2 2 2 3 4 5 6 6 7 8 9 11 12 13 13 13 13 13 13 13 13 14 14 14 13 13 12 11 10 8 6 5 4 2 1 2 5 7 9 13 17 17 19 22 27 33 38 39 38 35 32 32 32 33 33 32 31 30
1 0 2 3 5 5 5 4 2 1 1 1 0 1 1 2 3 2 1 2 2 1 2 3 2 1 2 2 2 2 3 4 4 4 5 5 6 7 8 9 10 10 11 11 10 10 10 9 10 10 10 10 9 9 9 9 8 7 6 6 5 5 4 2 2 4 7 11 14 15 16 17 21 26 31 36 39 39 38 36 34 34 35 35 35 33
1 0 2 4 6 6 6 4 1 1 3 3 2 3 2 1 2 2 2 3 3 2 3 3 1 1 3 6 5 3 4 6 6 6 6 5 5 5 6 7 8 9 9 10 9 9 9 8 8 8 7 7 6 5 5 5 6 6 6 6 6 6 6 5 4 4 6 8 9 10 12 14 17 20 24 27 32 36 39 40 39 37 36 38 39 36
1 1 1 3 5 5 4 3 1 0 5 6 5 5 4 3 3 3 4 3 3 2 5 4 4 4 4 7 8 7 6 6 7 8 8 7 6 6 6 6 7 7 8 9 9 9 8 8 8 7 7 7 7 6 5 4 5 7 8 9 9 10 9 9 9 9 9 10 10 10 10 11 14 17 19 22 25 29 33 35 37 38 37 37 37 35
1 2 2 2 4 4 3 4 3 3 5 5 5 7 6 5 6 6 6 5 6 7 7 5 8 8 5 6 9 8 8 10 11 11 10 8 7 7 6 6 6 7 7 8 8 8 8 8 8 9 9 8 9 8 8 8 7 8 9 9 10 11 11 11 12 12 13 13 14 14 13 13 14 15 17 20 22 24 26 27 29 32 33 33 34 35
1 2 2 3 4 4 5 5 4 4 5 5 6 8 7 6 8 8 7 5 7 9 5 3 7 9 5 5 6 5 7 11 13 12 10 8 8 7 6 5 6 6 7 7 7 7 8 8 8 9 10 10 11 11 11 12 11 12 13 13 13 13 13 13 13 13 14 15 15 16 17 17 17 17 17 19 20 21 21 21 22 24 27 30 32 35
1 2 1 1 3 5 5 6 6 7 8 10 10 7 5 6 7 8 6 3 4 7 4 4 8 7 5 5 4 2 3 8 10 10 9 8 8 8 6 4 5 6 6 7 7 7 7 8 8 9 10 10 12 13 13 14 14 15 16 16 17 17 16 16 16 16 16 16 16 17 19 20 20 20 20 20 20 19 19 20 21 22 25 28 31 34
1 1 1 0 5 5 5 8 10 7 8 11 10 6 7 9 7 5 5 5 6 8 7 7 8 6 5 5 3 2 5 8 9 8 7 7 8 8 5 4 5 6 7 7 7 8 8 9 10 10 11 12 13 14 15 15 16 17 18 19 20 20 19 19 19 19 18 18 18 18 19 20 21 22 22 22 21 19 18 19 21 23 26 28 31 34
1 2 1 1 4 4 4 5 5 5 7 9 5 5 10 12 8 7 6 5 8 9 7 6 5 3 1 3 5 7 8 8 6 5 4 4 6 7 6 3 4 5 8 9 9 10 11 12 13 13 13 14 15 15 16 17 18 19 20 21 22 22 22 22 22 22 21 20 20 19 19 20 21 23 24 24 23 21 18 18 20 23 25 28 31 35
1 2 2 2 3 3 1 2 2 4 7 4 1 1 6 9 10 10 7 3 4 5 4 4 2 3 2 2 4 4 5 4 3 2 1 1 3 5 6 4 0 4 9 11 12 13 14 14 15 16 16 16 17 17 17 17 19 20 21 23 24 24 24 25 25 24 23 22 22 21 20 20 20 22 23 24 25 24 20 19 20 22 25 28 32 36
3 3 2 1 2 2 1 1 3 6 4 1 2 2 4 5 7 8 3 3 4 4 5 4 2 2 0 1 2 3 5 4 1 1 2 3 3 4 7 8 5 6 11 15 17 18 19 19 19 19 19 18 18 18 18 18 19 21 22 23 25 25 26 27 27 27 25 24 22 22 22 21 21 21 23 24 25 25 22 20 20 22 25 28 32 35
3 3 2 1 2 1 0 3 4 3 4 3 2 2 2 2 2 2 1 4 6 5 4 3 2 2 1 3 4 5 5 4 2 3 6 7 6 6 6 7 9 10 13 16 19 21 22 22 22 22 21 21 20 20 20 20 20 22 23 24 24 25 26 27 28 28 27 26 23 22 22 23 22 21 22 24 25 25 22 19 19 21 23 27 31 35
4 3 2 2 3 2 2 4 3 4 6 4 1 3 2 1 2 2 0 3 5 5 4 4 4 4 4 4 6 5 5 4 1 3 8 10 9 9 9 9 11 13 14 16 19 21 22 23 23 23 23 22 22 22 21 22 23 24 25 26 26 26 27 28 28 28 27 27 25 24 23 23 23 22 23 24 25 25 22 18 17 19 22 27 32 37
2 0 2 3 2 1 2 4 3 4 4 1 1 2 3 2 2 2 1 1 4 5 5 5 6 6 6 6 7 6 5 3 1 0 6 11 12 12 12 13 14 15 17 19 21 22 23 24 24 24 24 24 24 23 23 23 25 26 28 28 28 28 29 30 29 27 27 27 26 25 24 24 24 23 23 23 24 24 21 17 17 20 23 28 34 39
3 2 1 3 2 1 3 4 4 4 2 0 1 3 4 3 3 2 3 2 2 5 6 6 6 7 6 6 5 4 3 2 2 3 9 15 16 17 17 18 18 19 21 22 23 23 24 24 24 25 25 25 26 25 24 25 26 28 29 30 30 30 31 31 29 28 28 28 27 26 25 24 24 23 23 23 24 23 20 16 17 21 25 30 36 38
3 2 0 3 3 2 3 4 3 3 1 0 2 5 5 2 3 4 5 2 2 6 7 6 6 7 7 5 3 1 2 3 4 8 14 18 19 19 19 20 22 22 23 24 23 24 24 25 25 26 26 26 26 26 25 26 27 29 30 30 31 31 31 30 30 30 30 29 28 27 25 23 23 23 22 23 23 22 18 16 17 22 26 31 36 34
1 1 1 2 2 3 3 4 3 2 1 1 2 5 3 2 3 4 4 3 5 10 10 8 6 6 6 5 2 2 5 7 10 14 17 19 21 21 21 22 24 24 25 26 25 25 26 26 26 27 27 27 27 27 26 27 29 30 31 31 31 31 30 30 31 31 31 29 27 26 24 23 22 21 21 22 22 19 17 16 19 23 28 33 34 30
0 1 1 1 1 1 2 3 4 3 1 2 2 4 1 2 2 2 5 9 11 11 11 10 8 6 7 7 7 8 11 13 15 17 19 21 24 25 26 27 28 28 28 28 28 27 27 27 28 28 28 28 28 28 28 28 30 31 32 32 33 31 29 29 31 30 29 27 25 23 22 22 21 20 21 22 20 16 16 18 20 24 31 35 32 28
1 1 2 2 1 1 2 3 4 2 1 2 4 4 2 0 2 6 11 15 15 14 14 12 9 9 10 10 10 12 14 17 19 20 22 25 26 28 30 31 32 32 31 30 30 28 27 28 29 29 29 28 28 29 29 29 31 31 32 33 32 29 27 27 28 27 25 23 21 20 20 20 19 19 21 21 18 16 18 20 23 29 34 34 31 28
1 1 2 1 1 2 3 2 1 1 1 3 5 6 3 2 7 13 15 15 16 19 17 14 11 12 11 10 12 15 17 20 22 23 25 27 28 30 32 33 33 34 33 32 32 30 28 29 30 30 30 29 29 29 29 29 31 32 33 33 31 28 27 25 25 25 23 21 19 18 18 18 18 19 20 18 17 19 22 24 27 32 33 30 26 22
1 1 3 3 2 3 5 5 6 9 10 9 9 9 8 10 16 20 18 14 15 18 15 13 13 13 12 13 16 19 20 22 23 25 26 28 29 30 31 32 33 34 34 33 33 32 30 31 31 31 31 30 29 29 28 29 31 32 33 32 30 29 27 25 23 24 24 21 19 17 17 17 18 18 17 16 19 23 25 26 30 31 28 24 20 16
3 3 2 4 3 5 7 6 7 11 14 14 16 16 16 19 20 19 16 14 14 16 16 16 16 16 16 19 22 23 24 25 26 27 28 30 31 32 32 33 33 33 34 34 33 33 32 32 32 32 32 32 30 29 30 30 31 33 34 32 30 29 27 22 21 23 24 22 19 17 17 16 16 17 17 19 22 24 27 32 32 28 24 21 18 15
3 3 3 5 4 5 5 4 6 12 17 20 23 24 22 21 18 16 17 18 18 19 21 22 22 22 23 26 27 27 27 27 27 29 30 32 33 34 35 35 35 34 34 34 34 34 34 34 34 34 34 34 32 31 32 32 33 34 34 32 29 27 25 21 19 22 24 21 18 17 16 16 17 19 20 21 25 29 32 30 27 25 24 22 19 17
2 3 4 5 5 6 7 9 14 20 21 20 21 20 20 21 20 21 21 21 21 24 26 25 24 26 27 28 29 28 28 29 29 31 33 34 36 36 37 37 37 37 36 35 34 35 34 34 35 36 36 36 35 34 34 34 34 33 31 29 27 24 22 22 22 23 23 20 18 17 17 18 19 21 25 29 31 31 29 26 25 24 23 21 19 18
3 4 5 5 6 8 9 11 14 16 15 14 16 19 20 22 25 25 24 22 25 29 29 27 26 27 27 28 27 27 29 31 33 34 36 37 37 37 37 37 37 37 36 36 35 35 35 35 36 37 37 37 36 35 34 34 34 31 28 25 23 22 23 24 23 23 22 20 18 19 20 21 23 28 34 34 32 30 27 25 24 23 22 21 18 16
4 6 6 5 7 7 8 11 13 12 11 14 20 25 25 24 24 25 25 26 30 32 30 29 30 29 27 27 27 28 31 34 36 36 36 35 34 33 33 33 34 34 34 34 34 35 37 37 37 37 37 37 35 33 32 31 30 27 24 23 23 23 24 24 22 21 20 20 20 23 24 27 32 37 37 35 35 33 29 24 22 22 21 20 17 15
5 7 6 6 8 10 13 18 17 14 15 19 24 29 30 29 27 25 25 28 32 34 32 30 30 29 29 30 30 29 30 33 34 32 31 30 30 29 29 30 32 33 35 33 32 34 35 36 36 35 34 34 32 28 27 27 26 25 24 23 23 23 22 22 22 22 21 22 23 27 31 36 40 40 37 34 32 30 28 25 23 21 20 18 16 15
Wind_Direction
57 138 181 224 248 264 217 189 112 121 124 102 133 143 146 196 240 254 248 22 348 273 130 74 297 287 285 281 269 226 194 184 184 187 197 204 206 208 210 212 214 215 217 219 219 219 217 214 212 212 213 214 214 213 213 214 215 216 219 221 213 202 191 183 180 167 147 141 161 162 149 139 135 134 131 131 141 158 199 233 248 254 254 254 252 248
67 123 230 233 234 242 143 149 125 114 114 111 152 166 178 220 245 336 345 5 2 290 159 86 279 263 265 282 279 266 239 200 191 187 196 204 208 212 213 216 217 218 220 221 222 222 220 217 215 215 217 217 218 217 216 215 216 218 219 220 219 208 188 179 177 156 140 134 148 149 137 132 128 128 125 118 116 107 102 119 280 278 277 268 257 248
57 255 256 231 160 103 88 125 134 115 120 125 156 188 195 216 275 292 272 355 3 305 220 89 295 280 266 272 272 248 229 229 220 208 208 207 207 213 216 219 221 222 224 223 224 224 223 220 217 217 219 220 220 220 220 217 216 218 217 214 216 211 187 172 170 159 149 147 149 145 137 130 124 123 120 112 105 95 87 79 65 49 26 347 296 256
261 208 174 143 141 125 94 123 134 114 128 151 166 208 211 131 283 251 167 349 12 14 339 294 280 284 284 262 245 250 252 260 253 234 226 217 213 217 221 223 223 223 225 225 225 226 225 223 221 221 221 221 221 221 222 219 217 218 216 211 210 206 186 170 171 166 160 160 156 151 147 137 128 124 119 113 107 99 92 84 75 68 61 53 48 76
262 145 122 123 142 142 120 146 164 159 168 194 195 208 214 175 231 250 325 322 304 104 40 316 272 262 346 305 149 108 282 266 261 255 245 233 228 227 226 227 226 226 228 227 227 227 227 226 224 224 223 221 221 223 224 221 219 219 215 210 209 203 186 173 177 175 168 168 165 161 160 154 144 134 125 117 111 106 99 90 82 75 72 69 69 78
282 138 146 138 128 156 153 179 197 190 185 228 215 210 206 186 193 213 318 317 265 73 44 352 290 247 42 315 172 37 312 261 236 253 247 239 240 234 230 230 229 230 231 231 231 231 230 229 227 225 224 222 222 225 227 223 221 220 215 211 209 203 189 179 182 181 175 174 174 171 168 162 153 144 134 126 119 114 106 98 92 85 81 78 77 78
358 94 147 138 126 155 179 222 208 189 177 209 216 192 177 158 152 163 173 236 304 317 29 6 290 274 338 333 32 343 315 307 269 256 340 280 263 244 239 240 237 235 233 232 233 234 234 232 228 225 224 222 222 225 226 223 220 219 215 212 211 206 194 184 185 186 180 175 172 171 169 163 158 154 146 138 132 122 112 104 99 94 90 87 86 85
157 115 80 85 108 139 199 254 197 178 171 172 162 152 152 153 162 161 156 181 315 317 299 48 320 277 284 295 20 315 296 314 326 346 3 1 335 288 265 258 250 247 242 237 235 235 235 234 230 228 225 223 222 224 225 224 221 218 214 211 211 210 200 189 190 191 183 172 167 165 165 166 170 173 170 158 150 134 120 111 104 100 97 95 94 94
164 183 178 151 133 209 235 238 168 177 182 9 107 124 130 127 124 134 136 135 63 292 251 124 86 270 271 253 359 338 324 343 349 344 338 333 330 319 307 293 269 255 250 247 244 241 239 237 235 231 227 224 222 222 225 224 221 218 213 209 211 213 205 196 194 194 187 175 171 170 167 168 176 184 189 188 185 168 143 126 114 108 103 101 103 103
205 229 210 176 215 253 252 61 168 186 190 128 136 104 86 78 69 81 98 112 96 272 261 302 29 271 275 280 341 12 23 344 329 329 324 324 329 327 325 321 304 277 256 249 248 247 245 241 237 232 228 224 221 221 224 223 221 218 213 209 211 212 208 202 198 197 192 182 179 179 176 173 179 190 199 202 208 204 181 157 138 126 117 112 113 113
294 245 198 204 230 164 107 82 69 139 123 148 150 102 86 71 56 69 45 67 166 244 259 352 360 262 274 287 78 10 330 308 307 316 320 327 333 331 330 330 323 305 278 257 247 245 244 241 236 231 228 225 222 221 223 222 220 218 215 212 211 212 211 208 203 200 197 192 189 188 185 183 188 197 206 210 215 219 207 186 169 152 143 134 129 129
324 189 196 259 208 131 110 91 50 56 126 156 155 114 117 69 61 104 61 102 234 246 323 12 324 237 251 228 87 345 305 299 290 303 319 324 328 328 331 337 335 324 307 274 249 241 237 236 233 228 226 225 223 222 223 222 220 216 216 215 212 213 215 212 207 204 201 198 197 195 193 193 196 204 212 217 222 227 224 211 198 180 166 163 161 156
307 213 282 305 190 161 155 113 87 95 166 182 146 140 208 242 94 240 247 195 240 255 38 6 282 229 247 268 17 336 328 341 316 306 317 320 323 328 334 344 351 348 338 310 252 234 229 229 229 226 223 223 223 224 224 223 219 216 217 220 218 216 217 215 212 209 206 204 204 202 201 200 202 208 215 221 228 233 235 230 220 206 187 182 184 186
302 268 65 282 170 169 213 193 172 189 189 196 175 167 218 214 149 231 223 243 260 261 52 356 265 247 243 234 13 343 353 350 335 332 337 338 337 340 347 359 13 18 15 18 356 226 220 224 226 225 224 222 223 224 225 224 219 215 219 224 222 220 219 219 218 216 212 209 209 209 208 207 207 211 214 219 225 231 236 237 233 222 205 198 201 205
287 280 151 181 70 57 237 230 181 120 157 195 168 156 208 202 210 243 226 240 259 164 79 191 220 234 234 58 354 333 353 1 360 359 5 11 13 20 24 27 32 38 43 47 46 59 216 221 224 226 226 226 226 226 226 226 222 217 219 224 225 221 220 220 221 220 218 215 213 213 213 212 213 214 216 220 225 230 235 237 235 228 217 212 215 216
270 269 278 308 294 105 261 249 97 114 148 116 57 167 212 203 182 236 295 281 284 164 135 203 229 267 326 344 333 346 24 34 20 17 26 26 30 41 43 41 42 46 53 59 64 69 106 214 220 225 228 229 231 231 231 231 228 221 220 224 227 224 221 222 224 223 221 218 217 218 218 217 218 220 223 225 229 234 238 240 239 237 232 226 225 225
226 262 294 326 275 72 352 203 137 251 191 133 179 193 181 103 126 130 116 53 4 247 201 178 227 208 181 211 142 87 73 67 35 26 32 26 31 42 43 43 47 51 56 62 69 77 86 149 206 221 229 234 236 237 238 237 235 230 225 226 228 226 223 223 226 226 223 221 222 224 225 226 224 226 230 232 235 239 242 244 242 241 240 237 233 231
244 262 311 299 231 38 20 125 92 32 71 148 198 169 129 92 93 128 201 81 142 243 217 181 228 204 189 180 149 152 126 83 45 30 33 28 31 33 35 45 52 58 63 66 69 77 89 98 121 174 206 229 237 241 243 243 242 238 232 231 231 231 228 226 228 229 226 225 226 228 231 234 232 231 234 237 240 243 245 246 244 241 240 241 240 238
248 267 314 278 243 342 2 148 112 61 46 19 181 125 127 220 191 158 187 169 203 234 224 191 223 228 218 183 157 168 159 108 52 28 39 35 30 21 28 49 59 64 68 68 68 71 78 85 91 97 114 143 180 223 242 249 251 247 242 239 237 237 236 232 232 232 230 228 229 229 230 235 239 239 238 239 242 244 245 245 245 244 242 242 243 243
217 274 287 135 271 321 347 242 220 132 79 68 126 128 34 270 226 185 175 196 218 221 218 199 205 222 216 174 159 166 165 150 145 39 56 46 32 24 40 56 63 66 69 71 72 73 73 77 82 85 92 101 106 114 162 225 255 258 253 247 243 242 241 239 237 235 234 232 233 233 229 231 243 247 244 243 243 244 244 243 243 244 243 242 243 244
122 253 267 311 328 277 267 14 275 201 129 136 168 183 183 113 315 234 165 89 226 202 182 202 222 207 149 163 160 152 151 167 174 170 89 68 54 61 68 71 72 72 73 75 77 79 78 78 80 84 87 89 89 90 98 123 195 245 253 253 248 245 243 243 243 241 240 238 238 238 232 230 239 247 246 245 244 242 242 242 241 241 241 241 241 243
116 190 250 299 306 273 315 21 325 289 271 220 208 217 194 155 188 219 210 181 216 223 180 187 227 193 117 162 160 134 144 186 178 176 135 91 82 84 83 83 81 80 80 81 82 84 84 84 83 84 85 86 85 83 81 79 78 93 241 249 249 245 241 241 245 248 248 244 242 242 239 235 238 244 246 246 245 243 242 242 241 240 239 240 240 240
142 143 236 267 283 288 332 344 296 268 270 227 240 218 174 155 200 234 235 202 167 204 103 143 242 191 121 148 160 141 178 199 164 158 144 129 118 98 91 90 89 87 85 85 86 85 85 85 85 85 84 83 81 78 75 73 69 64 54 251 242 240 235 229 229 239 250 251 247 245 244 241 240 243 246 247 246 244 244 244 244 242 240 239 239 239
162 194 270 265 288 312 319 332 204 185 162 163 39 60 165 188 96 254 270 155 191 187 145 199 238 178 134 123 127 143 154 159 162 158 152 145 131 109 96 94 92 91 90 87 85 84 83 83 82 82 82 82 81 79 76 73 69 61 53 42 235 232 231 225 218 221 238 251 251 247 245 243 242 243 245 248 249 248 248 247 247 246 243 241 240 239
232 237 241 272 291 285 239 204 199 194 183 232 333 70 156 95 95 103 101 125 230 215 173 234 240 169 130 117 100 100 130 154 170 171 164 152 138 122 107 100 96 94 93 89 86 83 80 79 75 72 71 72 74 73 71 69 65 59 51 43 34 28 3 249 235 235 242 246 246 244 241 241 243 244 245 247 249 251 251 251 251 250 247 244 242 240
244 216 203 251 262 251 246 248 253 256 239 277 241 192 174 121 140 176 148 174 225 201 169 225 246 86 114 157 146 115 157 181 183 189 188 166 150 137 119 109 102 94 90 86 84 80 75 72 68 63 61 58 57 57 54 52 50 47 43 34 26 21 15 354 277 258 252 245 243 245 244 240 241 244 246 248 250 252 253 254 255 254 252 247 243 240
174 220 220 239 252 254 262 265 311 2 273 264 260 228 187 144 185 166 163 214 208 182 198 206 230 248 194 193 193 177 192 199 188 192 197 182 167 153 128 113 102 91 84 80 76 73 68 62 59 55 51 46 41 34 23 13 2 355 349 346 347 348 348 348 338 306 279 266 263 263 258 251 246 246 249 252 254 255 256 257 257 257 256 250 244 239
146 277 209 213 248 254 269 268 181 204 260 260 265 250 216 191 190 176 208 210 131 200 243 191 183 225 208 204 216 209 203 210 206 202 198 188 180 167 143 120 105 91 81 75 67 62 57 49 43 39 34 30 23 13 360 340 324 320 315 314 315 313 308 309 312 314 311 304 297 290 283 273 259 251 250 253 255 257 258 260 261 261 261 256 249 243
185 263 192 195 250 232 226 249 221 218 249 246 246 248 234 214 201 202 220 186 159 226 251 175 183 213 204 208 224 218 207 205 203 201 198 194 189 173 152 133 112 92 77 67 56 48 38 27 22 18 12 6 360 354 348 339 330 324 318 314 310 307 303 297 294 295 297 298 298 295 291 286 278 268 258 253 253 256 258 261 264 266 266 263 255 246
219 262 173 194 258 250 242 246 208 212 249 249 238 237 234 231 223 224 234 200 197 239 263 160 206 224 209 211 229 236 221 201 190 194 200 204 201 185 163 134 104 81 66 55 43 32 20 9 4 360 356 351 344 338 334 330 327 323 320 315 311 309 307 303 298 294 292 292 292 291 288 287 285 282 274 263 256 255 257 259 260 261 264 261 253 244
230 266 109 159 263 265 264 266 241 227 247 258 255 246 233 234 234 238 242 210 222 257 256 204 229 242 232 230 247 279 221 188 183 193 203 209 205 192 174 132 94 74 59 46 33 22 11 1 354 349 345 340 335 330 326 322 319 317 314 311 309 307 304 303 302 299 297 295 292 290 289 287 284 282 281 276 267 259 257 258 256 256 258 256 248 242
196 244 80 191 268 260 244 257 261 260 266 262 255 247 239 231 219 223 224 196 209 236 232 220 234 247 238 227 231 215 190 190 194 197 202 212 210 197 179 131 91 64 43 29 17 9 1 353 347 342 338 332 328 325 321 317 315 312 309 306 305 304 303 303 301 299 298 297 295 292 291 289 285 283 282 282 279 270 261 261 261 258 256 253 246 238
181 242 210 209 269 268 233 253 281 305 289 266 234 225 243 239 230 228 225 210 213 223 231 233 244 285 304 211 214 208 195 196 200 189 193 210 210 205 194 151 90 43 20 10 3 356 349 345 339 334 331 327 323 319 317 315 312 309 306 304 303 302 302 302 302 300 298 297 296 296 293 289 287 284 283 283 283 277 267 261 261 258 256 253 246 236
180 235 241 215 250 266 273 352 328 268 262 261 104 247 255 251 252 252 251 259 240 239 265 276 295 352 351 227 234 214 173 159 152 149 187 236 236 233 225 211 155 6 353 345 343 341 339 336 332 329 327 323 319 316 314 312 309 305 302 301 300 300 300 300 300 300 300 299 297 296 295 291 285 282 280 281 282 279 270 262 259 258 255 251 243 232
180 205 220 196 223 263 357 16 252 245 250 309 28 313 269 266 269 263 273 20 8 319 304 300 317 360 234 162 49 67 102 100 73 22 356 334 311 282 254 245 266 317 328 327 326 327 330 330 329 327 325 322 318 316 314 312 309 304 300 300 299 299 300 299 298 299 301 302 299 295 291 289 284 279 275 275 277 276 272 265 261 259 254 248 240 229
182 181 184 178 193 211 147 193 214 274 316 300 308 337 308 299 311 267 181 52 24 351 327 326 348 13 63 86 66 60 60 36 7 46 45 31 15 355 320 293 299 310 314 315 313 315 320 325 325 322 320 318 316 316 315 313 309 305 303 302 302 302 302 300 298 299 300 301 300 294 287 283 281 277 272 270 271 271 269 265 262 260 255 246 234 224
182 163 177 214 203 184 220 226 239 310 306 277 315 11 325 317 5 325 205 63 27 1 357 7 11 12 18 41 48 41 32 16 5 81 54 31 14 360 341 324 317 311 307 306 305 308 314 318 318 315 313 311 310 311 313 311 307 306 305 305 305 306 305 301 300 301 300 297 295 290 284 280 278 275 271 268 267 267 266 263 260 259 254 243 229 220
165 158 199 224 219 170 238 259 264 280 281 260 62 340 305 264 264 284 243 114 48 16 2 5 10 7 2 14 28 28 19 357 246 123 20 1 348 339 329 320 314 309 307 307 308 309 311 312 311 309 307 305 305 307 308 306 304 303 303 304 307 306 304 303 303 303 299 293 288 285 281 278 275 273 270 266 265 265 262 258 256 255 251 241 228 217
108 40 125 220 240 186 219 253 251 237 248 11 299 317 323 278 221 219 239 210 59 9 353 357 1 1 4 12 23 20 350 312 259 301 333 335 330 326 323 318 313 309 306 306 308 308 308 307 306 305 303 302 302 304 305 303 301 301 302 305 307 305 303 303 303 300 294 289 285 282 278 275 273 271 267 263 263 261 256 253 256 255 248 233 219 208
110 60 105 229 247 213 219 252 253 239 271 315 280 313 330 291 209 230 249 246 358 335 330 338 339 345 355 358 15 38 278 275 290 309 317 320 318 317 317 313 310 308 305 305 305 305 305 304 303 302 301 300 301 303 303 301 299 300 303 306 307 304 304 304 302 296 290 286 283 280 276 272 270 268 263 260 258 255 251 249 253 254 241 220 207 202
65 9 271 240 254 227 226 253 261 265 260 184 287 326 353 134 195 240 261 313 321 311 315 315 302 315 332 321 287 264 276 288 302 308 310 313 313 313 312 310 309 308 307 306 306 306 304 302 300 299 297 297 299 300 300 299 298 299 303 305 303 301 304 305 302 297 291 285 280 277 273 269 266 263 259 256 252 246 242 244 250 247 227 207 199 196
358 333 271 221 262 245 215 256 281 289 128 125 342 344 23 169 231 278 310 312 301 299 308 303 288 297 308 293 279 286 295 303 309 309 309 310 310 309 309 309 309 308 308 308 308 308 306 304 301 298 296 295 295 296 297 298 297 297 301 302 300 300 303 305 304 299 291 282 275 271 265 261 259 256 251 247 243 236 235 241 244 233 214 199 191 186
310 301 266 208 244 273 224 234 266 282 78 49 355 353 33 79 320 329 321 310 303 301 296 285 284 300 301 290 290 299 307 311 309 308 308 307 306 306 305 305 306 306 306 307 306 307 307 304 301 299 298 296 293 292 294 295 295 296 297 298 298 298 298 300 302 298 289 278 268 261 256 254 252 247 242 239 233 227 231 236 230 214 200 189 181 177
271 271 287 270 247 249 230 213 233 318 18 4 330 317 299 278 317 324 317 302 300 301 288 272 285 306 306 303 308 312 313 312 309 308 308 305 303 302 301 301 301 301 302 302 302 304 305 302 300 298 296 294 293 292 292 293 294 294 293 294 294 292 288 291 295 292 284 276 265 255 250 248 243 239 236 230 225 226 229 224 209 195 185 176 172 171
304 322 295 277 261 269 272 275 290 297 303 314 316 303 284 281 301 314 314 301 301 304 292 278 292 305 306 310 315 313 310 310 309 308 306 303 302 300 300 300 299 298 299 299 298 300 301 300 298 297 295 294 294 293 292 293 293 292 291 291 290 285 280 282 286 284 280 273 263 253 247 242 236 231 226 223 228 230 219 198 182 173 168 165 166 165
310 332 286 258 283 303 285 271 282 293 300 311 312 306 299 299 304 315 321 319 319 319 313 305 306 308 307 311 313 309 306 305 305 303 302 301 300 300 300 299 297 295 294 294 294 297 298 297 295 294 294 295 296 294 293 293 293 292 290 289 285 280 276 273 273 273 273 270 261 250 244 235 224 219 220 222 220 207 186 169 161 155 149 148 151 153
313 2 312 272 288 302 286 293 313 305 304 308 309 307 309 312 314 318 319 317 318 319 316 312 308 305 304 305 305 303 301 300 298 296 297 298 299 300 300 298 295 293 291 291 292 294 295 293 292 291 292 294 295 294 295 295 294 293 291 287 282 277 272 264 257 259 265 267 259 246 233 224 220 217 209 197 184 173 164 160 156 147 140 142 153 162
319 13 321 281 274 276 277 289 295 294 295 299 301 303 307 310 313 312 309 306 306 309 310 308 303 300 298 298 298 297 297 296 294 295 296 298 298 299 297 296 294 293 292 291 291 292 292 291 289 289 289 290 292 294 296 295 295 293 288 282 275 270 264 257 250 251 257 260 251 235 224 222 219 200 177 166 162 158 153 149 146 143 143 152 166 172
281 295 293 285 287 286 282 287 291 293 295 295 295 298 301 303 307 308 303 298 298 301 304 303 299 295 293 292 292 292 292 293 294 295 296 296 296 295 294 294 294 293 292 291 290 290 289 288 287 287 287 288 290 294 296 295 294 291 283 274 266 260 255 251 248 248 250 244 232 225 221 215 198 175 160 156 153 146 140 138 142 150 156 161 167 168
263 285 291 290 292 287 287 298 304 303 297 294 296 299 300 300 301 298 294 292 292 294 297 297 295 292 288 285 285 287 290 292 294 294 294 293 291 291 291 292 293 291 289 289 288 288 287 287 286 286 285 286 290 294 296 295 292 286 275 265 259 255 251 247 245 243 235 222 218 218 209 192 174 162 155 150 145 140 140 143 148 155 160 159 157 152
252 284 297 295 294 294 294 298 300 295 289 289 292 295 297 299 298 292 285 285 287 290 292 293 291 287 283 282 285 289 291 292 293 293 292 290 290 291 292 293 293 291 289 287 286 286 286 287 286 284 284 287 292 294 293 291 286 278 270 262 258 255 250 243 238 230 216 210 214 208 188 169 159 153 149 144 141 142 146 146 144 148 154 156 149 138